星链-34837 (STARLINK-34837)

导读

STARLINK-34837(星链-34837)是美国太空探索技术公司(SpaceX)研发运营的低轨通信卫星,属于Starlink星链全球卫星互联网项目,于2025年8月31日发射升空。 该卫星运行在近地轨道,轨道倾角约53.16度,近地点约446公里、远地点约449公里,目前处于在轨运行状态,为全球提供高速低延迟互联网接入服务,助力缩小数字鸿沟。

基本信息
目录编号:
65423
目录名称:
STARLINK-34837
国际标识:
2025-192V
轨道中心:
EARTH
卫星名称:
星链-34837
卫星全名:
星链-34837 (STARLINK-34837)
卫星状态:
在轨 (已飞行286 天)
发射日期:
2025-08-31 UTC
国别 :
美国 (US)
星等 :
--
轨道信息
数据来源 国际轨道数据 AOE轨道数据
星历时间 2026-06-13T14:32:37+0800
11小时前
查看轨道信息
2026-06-10T06:00:00+0800
3天前
查看轨道信息
半长轴 6849.001km 6848.811km
偏心率 0.0001304 0.0001509
轨道倾角 53.159° 53.157°
近地点辐角 57.750° 73.380°
升交点赤经 148.005° 163.631°
平近点角 302.362° 131.168°
近地点 469.97km 469.64km
远地点 471.758km 471.708km
周期 94.016分钟 94.012分钟
每日圈数 15.316585 15.317223
详细信息
固有亮度:
5
最大亮度:
2.5
卫星平台:
Starlink V1.0
覆盖范围:
全球
运营商:
太空探索技术公司
运营商所在国:
美国
制造商(研发单位):
太空探索技术公司
制造商所在国:
美国
使用方式:
暂无
卫星简介
Starlink 计划是 SpaceX 推出的全球卫星互联网项目,通过发射低轨道卫星,为全球尤其是偏远地区提供高速、低延迟的互联网服务。自 2019 年起,Starlink 已部署数千颗卫星,旨在缩小全球数字鸿沟,推动互联网普及。该项目还为军事、航空等行业提供通信支持,带来广泛经济效益。
2D轨道图
3D轨道图
轨道高度分析图
轨道倾角分析图
轨道综合分析图
查看轨道综合分析图